Fort Smith, AR

11:33 PM CDT on April 27, 2017 (GMT -0500)
Fort Smith Regional

Weather History for KFSM - January, 2014

Change the Weather History Date:

Sunday, January 12, 2014

  Actual Average Record
Temperature  
Mean Temperature 51 °F 39 °F  
Max Temperature 71 °F 49 °F 76 °F (2000)
Min Temperature 30 °F 29 °F -11 °F (1918)
Degree Days  
Heating Degree Days 14 26  
Month to date heating degree days 358 312  
Since 1 July heating degree days 1745 1611  
Moisture  
Dew Point 31 °F    
Average Humidity 55    
Maximum Humidity 92    
Minimum Humidity 17    
Precipitation  
Precipitation 0.00 in 0.09 in 1.20 in (1930)
Month to date precipitation 0.79 1.05  
Year to date precipitation 0.79 1.05  
Sea Level Pressure  
Sea Level Pressure 29.87 in    
Wind  
Wind Speed 10 mph (SE)    
Max Wind Speed 30 mph    
Max Gust Speed 37 mph    
Visibility 10 miles    
Events      
T = Trace of Precipitation, MM = Missing Value Source: NWS Daily Summary

Daily Weather History Graph

Daily Weather History Graph

Search for Another Location

Airport or City:

Trip Planner

Search our weather history database for the weather conditions in past years. The results will help you decide how hot, cold, wet, or windy it might be!

Date:

Astronomy

Jan. 12, 2014 Rise Set
Actual Time 7:26 AM CST 5:25 PM CST
Civil Twilight 6:58 AM CST 5:53 PM CST
Nautical Twilight 6:27 AM CST 6:24 PM CST
Astronomical Twilight 5:56 AM CST 6:55 PM CST
Moon 2:53 PM CST (1/12) 4:26 AM CST (1/12)
Length of Visible Light 10h 54m
Length of Day
9h 59m
Waxing Gibbous, 90% of the Moon is Illuminated
Jan 12
Waxing Gibbous
Jan 15
Full
Jan 23
Last Quarter
Jan 30
New
Feb 6
First Quarter

Hourly Weather History & Observations

Time (CST) Temp. Windchill Dew Point Humidity Pressure Visibility Wind Dir Wind Speed Gust Speed Precip Events Conditions
12:53 AM 33.1 °F - 28.0 °F 82% 30.03 in 10.0 mi Calm Calm - N/A   Clear
1:53 AM 32.0 °F 28.7 °F 28.9 °F 88% 30.02 in 10.0 mi NE 3.5 mph - N/A   Clear
2:53 AM 32.0 °F 25.6 °F 28.9 °F 88% 30.01 in 10.0 mi NE 6.9 mph - N/A   Clear
3:53 AM 32.0 °F 28.7 °F 28.0 °F 85% 30.01 in 10.0 mi NE 3.5 mph - N/A   Clear
4:53 AM 30.9 °F 25.2 °F 28.0 °F 89% 29.99 in 10.0 mi NE 5.8 mph - N/A   Clear
5:53 AM 32.0 °F 25.6 °F 28.0 °F 85% 29.99 in 10.0 mi NE 6.9 mph - N/A   Clear
6:53 AM 30.9 °F 25.2 °F 28.0 °F 89% 30.01 in 10.0 mi NE 5.8 mph - N/A   Clear
7:53 AM 32.0 °F 27.5 °F 28.0 °F 85% 30.01 in 10.0 mi NE 4.6 mph - N/A   Clear
8:53 AM 37.0 °F 32.4 °F 32.0 °F 82% 30.01 in 10.0 mi NE 5.8 mph - N/A   Clear
9:53 AM 41.0 °F 36.4 °F 33.1 °F 73% 30.00 in 10.0 mi ENE 6.9 mph - N/A   Clear
10:53 AM 48.9 °F - 35.1 °F 59% 29.96 in 10.0 mi East 5.8 mph - N/A   Clear
11:53 AM 57.0 °F - 39.0 °F 51% 29.88 in 10.0 mi NE 9.2 mph - N/A   Clear
12:20 PM 69.8 °F - 26.6 °F 20% 29.85 in 10.0 mi SSW 18.4 mph 33.4 mph N/A   Clear
12:53 PM 70.0 °F - 24.1 °F 18% 29.81 in 10.0 mi SSW 24.2 mph 36.8 mph N/A   Clear
1:53 PM 71.1 °F - 25.0 °F 18% 29.78 in 10.0 mi SSW 20.7 mph 33.4 mph N/A   Clear
2:53 PM 70.0 °F - 28.9 °F 22% 29.77 in 10.0 mi SSW 21.9 mph 29.9 mph N/A   Clear
3:53 PM 70.0 °F - 30.0 °F 23% 29.76 in 10.0 mi SSW 21.9 mph 31.1 mph N/A   Clear
4:53 PM 66.9 °F - 30.0 °F 25% 29.75 in 10.0 mi South 9.2 mph - N/A   Clear
5:53 PM 66.9 °F - 28.9 °F 24% 29.75 in 10.0 mi South 13.8 mph 21.9 mph N/A   Clear
6:53 PM 64.0 °F - 28.9 °F 27% 29.75 in 10.0 mi Variable 3.5 mph - N/A   Clear
7:53 PM 64.9 °F - 28.9 °F 26% 29.73 in 10.0 mi SSW 11.5 mph - N/A   Clear
8:53 PM 64.9 °F - 28.9 °F 26% 29.75 in 10.0 mi SSW 12.7 mph 20.7 mph N/A   Clear
9:53 PM 63.0 °F - 34.0 °F 34% 29.74 in 10.0 mi SSW 12.7 mph - N/A   Clear
10:53 PM 63.0 °F - 36.0 °F 37% 29.73 in 10.0 mi South 17.3 mph 23.0 mph N/A   Clear
11:53 PM 62.1 °F - 39.0 °F 43% 29.71 in 10.0 mi SSW 12.7 mph 24.2 mph N/A   Clear